Location: Baia Mare
(47.6567°N, 23.5850°E)
Time: 09:30:22
(UTC+03:00)

ISS - Pass Details

Date: 28 October 2018
Orbit: 403 x 408 km, 51.6° (Epoch: 21 October)

Event Time Altitude Azimuth Distance (km) Brightness Sun altitude
Exits shadow 05:23:16 - 192° (SSW) 1,734 -0.8 -17.4°
Reaches altitude 10° 05:24:09 10° 183° (S) 1,453 -1.0 -17.2°
Maximum altitude 05:26:27 18° 138° (SE) 1,070 -1.2 -16.8°
Drops below altitude 10° 05:28:46 10° 93° (E) 1,463 0.4 -16.5°
Sets 05:31:17 0° 73° (ENE) 2,328 1.5 -16.0°
